Index of /20260424/WXO-DD/model_gdps/15km/00/072
Name Last modified Size Description
Parent Directory -
20260424T00Z_MSC_GDPS_AbsoluteVorticity_IsbL-0200_LatLon0.15_PT072H.grib2 2026-04-24 04:16 1.5M
20260424T00Z_MSC_GDPS_AbsoluteVorticity_IsbL-0250_LatLon0.15_PT072H.grib2 2026-04-24 04:16 1.3M
20260424T00Z_MSC_GDPS_AbsoluteVorticity_IsbL-0500_LatLon0.15_PT072H.grib2 2026-04-24 04:16 1.2M
20260424T00Z_MSC_GDPS_AbsoluteVorticity_IsbL-0700_LatLon0.15_PT072H.grib2 2026-04-24 04:16 1.3M
20260424T00Z_MSC_GDPS_AbsoluteVorticity_IsbL-0850_LatLon0.15_PT072H.grib2 2026-04-24 04:16 1.6M
20260424T00Z_MSC_GDPS_AirTemp-Max_AGL-2m_LatLon0.15_PT072H.grib2 2026-04-24 04:16 748K
20260424T00Z_MSC_GDPS_AirTemp-Min_AGL-2m_LatLon0.15_PT072H.grib2 2026-04-24 04:16 798K
20260424T00Z_MSC_GDPS_AirTemp_AGL-120m_LatLon0.15_PT072H.grib2 2026-04-24 04:16 909K
20260424T00Z_MSC_GDPS_AirTemp_AGL-2m_LatLon0.15_PT072H.grib2 2026-04-24 04:16 1.0M
20260424T00Z_MSC_GDPS_AirTemp_AGL-40m_LatLon0.15_PT072H.grib2 2026-04-24 04:16 815K
20260424T00Z_MSC_GDPS_AirTemp_AGL-80m_LatLon0.15_PT072H.grib2 2026-04-24 04:16 803K
20260424T00Z_MSC_GDPS_AirTemp_IsbL-0001_LatLon0.15_PT072H.grib2 2026-04-24 04:16 711K
20260424T00Z_MSC_GDPS_AirTemp_IsbL-0005_LatLon0.15_PT072H.grib2 2026-04-24 04:16 750K
20260424T00Z_MSC_GDPS_AirTemp_IsbL-0010_LatLon0.15_PT072H.grib2 2026-04-24 04:16 760K
20260424T00Z_MSC_GDPS_AirTemp_IsbL-0020_LatLon0.15_PT072H.grib2 2026-04-24 04:16 699K
20260424T00Z_MSC_GDPS_AirTemp_IsbL-0030_LatLon0.15_PT072H.grib2 2026-04-24 04:16 752K
20260424T00Z_MSC_GDPS_AirTemp_IsbL-0050_LatLon0.15_PT072H.grib2 2026-04-24 04:16 807K
20260424T00Z_MSC_GDPS_AirTemp_IsbL-0100_LatLon0.15_PT072H.grib2 2026-04-24 04:16 944K
20260424T00Z_MSC_GDPS_AirTemp_IsbL-0150_LatLon0.15_PT072H.grib2 2026-04-24 04:16 959K
20260424T00Z_MSC_GDPS_AirTemp_IsbL-0175_LatLon0.15_PT072H.grib2 2026-04-24 04:16 951K
20260424T00Z_MSC_GDPS_AirTemp_IsbL-0200_LatLon0.15_PT072H.grib2 2026-04-24 04:16 969K
20260424T00Z_MSC_GDPS_AirTemp_IsbL-0225_LatLon0.15_PT072H.grib2 2026-04-24 04:16 1.0M
20260424T00Z_MSC_GDPS_AirTemp_IsbL-0250_LatLon0.15_PT072H.grib2 2026-04-24 04:16 1.0M
20260424T00Z_MSC_GDPS_AirTemp_IsbL-0275_LatLon0.15_PT072H.grib2 2026-04-24 04:16 1.0M
20260424T00Z_MSC_GDPS_AirTemp_IsbL-0300_LatLon0.15_PT072H.grib2 2026-04-24 04:16 1.0M
20260424T00Z_MSC_GDPS_AirTemp_IsbL-0350_LatLon0.15_PT072H.grib2 2026-04-24 04:16 921K
20260424T00Z_MSC_GDPS_AirTemp_IsbL-0400_LatLon0.15_PT072H.grib2 2026-04-24 04:16 932K
20260424T00Z_MSC_GDPS_AirTemp_IsbL-0450_LatLon0.15_PT072H.grib2 2026-04-24 04:16 956K
20260424T00Z_MSC_GDPS_AirTemp_IsbL-0500_LatLon0.15_PT072H.grib2 2026-04-24 04:16 1.0M
20260424T00Z_MSC_GDPS_AirTemp_IsbL-0550_LatLon0.15_PT072H.grib2 2026-04-24 04:16 799K
20260424T00Z_MSC_GDPS_AirTemp_IsbL-0600_LatLon0.15_PT072H.grib2 2026-04-24 04:16 889K
20260424T00Z_MSC_GDPS_AirTemp_IsbL-0650_LatLon0.15_PT072H.grib2 2026-04-24 04:16 918K
20260424T00Z_MSC_GDPS_AirTemp_IsbL-0700_LatLon0.15_PT072H.grib2 2026-04-24 04:16 946K
20260424T00Z_MSC_GDPS_AirTemp_IsbL-0750_LatLon0.15_PT072H.grib2 2026-04-24 04:16 1.0M
20260424T00Z_MSC_GDPS_AirTemp_IsbL-0800_LatLon0.15_PT072H.grib2 2026-04-24 04:16 1.1M
20260424T00Z_MSC_GDPS_AirTemp_IsbL-0850_LatLon0.15_PT072H.grib2 2026-04-24 04:16 1.1M
20260424T00Z_MSC_GDPS_AirTemp_IsbL-0875_LatLon0.15_PT072H.grib2 2026-04-24 04:16 1.1M
20260424T00Z_MSC_GDPS_AirTemp_IsbL-0900_LatLon0.15_PT072H.grib2 2026-04-24 04:16 1.1M
20260424T00Z_MSC_GDPS_AirTemp_IsbL-0925_LatLon0.15_PT072H.grib2 2026-04-24 04:16 1.1M
20260424T00Z_MSC_GDPS_AirTemp_IsbL-0950_LatLon0.15_PT072H.grib2 2026-04-24 04:16 1.2M
20260424T00Z_MSC_GDPS_AirTemp_IsbL-0970_LatLon0.15_PT072H.grib2 2026-04-24 04:16 1.2M
20260424T00Z_MSC_GDPS_AirTemp_IsbL-0985_LatLon0.15_PT072H.grib2 2026-04-24 04:16 1.1M
20260424T00Z_MSC_GDPS_AirTemp_IsbL-1000_LatLon0.15_PT072H.grib2 2026-04-24 04:16 1.1M
20260424T00Z_MSC_GDPS_AirTemp_IsbL-1015_LatLon0.15_PT072H.grib2 2026-04-24 04:16 1.1M
20260424T00Z_MSC_GDPS_Albedo_Sfc_LatLon0.15_PT072H.grib2 2026-04-24 04:16 246K
20260424T00Z_MSC_GDPS_CAPE_Sfc_LatLon0.15_PT072H.grib2 2026-04-24 04:16 3.9M
20260424T00Z_MSC_GDPS_CIN_Sfc_LatLon0.15_PT072H.grib2 2026-04-24 04:16 2.9M
20260424T00Z_MSC_GDPS_CloudWater_EAtm_LatLon0.15_PT072H.grib2 2026-04-24 04:16 535K
20260424T00Z_MSC_GDPS_ConvectivePrecip-Accum_Sfc_LatLon0.15_PT072H.grib2 2026-04-24 04:16 3.0M
20260424T00Z_MSC_GDPS_DewPointDepression_AGL-2m_LatLon0.15_PT072H.grib2 2026-04-24 04:16 754K
20260424T00Z_MSC_GDPS_DewPointDepression_IsbL-0010_LatLon0.15_PT072H.grib2 2026-04-24 04:16 37K
20260424T00Z_MSC_GDPS_DewPointDepression_IsbL-0020_LatLon0.15_PT072H.grib2 2026-04-24 04:16 76K
20260424T00Z_MSC_GDPS_DewPointDepression_IsbL-0030_LatLon0.15_PT072H.grib2 2026-04-24 04:16 61K
20260424T00Z_MSC_GDPS_DewPointDepression_IsbL-0050_LatLon0.15_PT072H.grib2 2026-04-24 04:16 363K
20260424T00Z_MSC_GDPS_DewPointDepression_IsbL-0100_LatLon0.15_PT072H.grib2 2026-04-24 04:16 399K
20260424T00Z_MSC_GDPS_DewPointDepression_IsbL-0150_LatLon0.15_PT072H.grib2 2026-04-24 04:16 449K
20260424T00Z_MSC_GDPS_DewPointDepression_IsbL-0175_LatLon0.15_PT072H.grib2 2026-04-24 04:16 552K
20260424T00Z_MSC_GDPS_DewPointDepression_IsbL-0200_LatLon0.15_PT072H.grib2 2026-04-24 04:16 657K
20260424T00Z_MSC_GDPS_DewPointDepression_IsbL-0225_LatLon0.15_PT072H.grib2 2026-04-24 04:16 763K
20260424T00Z_MSC_GDPS_DewPointDepression_IsbL-0250_LatLon0.15_PT072H.grib2 2026-04-24 04:16 859K
20260424T00Z_MSC_GDPS_DewPointDepression_IsbL-0275_LatLon0.15_PT072H.grib2 2026-04-24 04:16 880K
20260424T00Z_MSC_GDPS_DewPointDepression_IsbL-0300_LatLon0.15_PT072H.grib2 2026-04-24 04:16 920K
20260424T00Z_MSC_GDPS_DewPointDepression_IsbL-0350_LatLon0.15_PT072H.grib2 2026-04-24 04:16 951K
20260424T00Z_MSC_GDPS_DewPointDepression_IsbL-0400_LatLon0.15_PT072H.grib2 2026-04-24 04:16 1.0M
20260424T00Z_MSC_GDPS_DewPointDepression_IsbL-0450_LatLon0.15_PT072H.grib2 2026-04-24 04:16 1.0M
20260424T00Z_MSC_GDPS_DewPointDepression_IsbL-0500_LatLon0.15_PT072H.grib2 2026-04-24 04:16 1.0M
20260424T00Z_MSC_GDPS_DewPointDepression_IsbL-0550_LatLon0.15_PT072H.grib2 2026-04-24 04:16 1.0M
20260424T00Z_MSC_GDPS_DewPointDepression_IsbL-0600_LatLon0.15_PT072H.grib2 2026-04-24 04:16 1.1M
20260424T00Z_MSC_GDPS_DewPointDepression_IsbL-0650_LatLon0.15_PT072H.grib2 2026-04-24 04:16 1.1M
20260424T00Z_MSC_GDPS_DewPointDepression_IsbL-0700_LatLon0.15_PT072H.grib2 2026-04-24 04:16 1.1M
20260424T00Z_MSC_GDPS_DewPointDepression_IsbL-0750_LatLon0.15_PT072H.grib2 2026-04-24 04:16 1.1M
20260424T00Z_MSC_GDPS_DewPointDepression_IsbL-0800_LatLon0.15_PT072H.grib2 2026-04-24 04:16 1.2M
20260424T00Z_MSC_GDPS_DewPointDepression_IsbL-0850_LatLon0.15_PT072H.grib2 2026-04-24 04:16 1.1M
20260424T00Z_MSC_GDPS_DewPointDepression_IsbL-0875_LatLon0.15_PT072H.grib2 2026-04-24 04:16 1.1M
20260424T00Z_MSC_GDPS_DewPointDepression_IsbL-0900_LatLon0.15_PT072H.grib2 2026-04-24 04:16 1.1M
20260424T00Z_MSC_GDPS_DewPointDepression_IsbL-0925_LatLon0.15_PT072H.grib2 2026-04-24 04:16 1.0M
20260424T00Z_MSC_GDPS_DewPointDepression_IsbL-0950_LatLon0.15_PT072H.grib2 2026-04-24 04:16 1.0M
20260424T00Z_MSC_GDPS_DewPointDepression_IsbL-0970_LatLon0.15_PT072H.grib2 2026-04-24 04:16 1.0M
20260424T00Z_MSC_GDPS_DewPointDepression_IsbL-0985_LatLon0.15_PT072H.grib2 2026-04-24 04:16 1.0M
20260424T00Z_MSC_GDPS_DewPointDepression_IsbL-1000_LatLon0.15_PT072H.grib2 2026-04-24 04:16 968K
20260424T00Z_MSC_GDPS_DewPointDepression_IsbL-1015_LatLon0.15_PT072H.grib2 2026-04-24 04:16 912K
20260424T00Z_MSC_GDPS_DewPoint_AGL-2m_LatLon0.15_PT072H.grib2 2026-04-24 04:16 601K
20260424T00Z_MSC_GDPS_DownwardLongwaveRadiationFlux-Accum_Sfc_LatLon0.15_PT072H.grib2 2026-04-24 04:16 911K
20260424T00Z_MSC_GDPS_DownwardShortwaveRadiationFlux-Accum_NTAtm_LatLon0.15_PT072H.grib2 2026-04-24 04:16 162K
20260424T00Z_MSC_GDPS_DownwardShortwaveRadiationFlux-Accum_Sfc_LatLon0.15_PT072H.grib2 2026-04-24 04:16 1.1M
20260424T00Z_MSC_GDPS_FreezingRain-Accum12h_Sfc_LatLon0.15_PT072H.grib2 2026-04-24 04:16 138K
20260424T00Z_MSC_GDPS_FreezingRain-Accum1h_Sfc_LatLon0.15_PT072H.grib2 2026-04-24 04:16 29K
20260424T00Z_MSC_GDPS_FreezingRain-Accum24h_Sfc_LatLon0.15_PT072H.grib2 2026-04-24 04:16 196K
20260424T00Z_MSC_GDPS_FreezingRain-Accum3h_Sfc_LatLon0.15_PT072H.grib2 2026-04-24 04:16 46K
20260424T00Z_MSC_GDPS_FreezingRain-Accum6h_Sfc_LatLon0.15_PT072H.grib2 2026-04-24 04:16 74K
20260424T00Z_MSC_GDPS_FreezingRain-Accum_Sfc_LatLon0.15_PT072H.grib2 2026-04-24 04:16 342K
20260424T00Z_MSC_GDPS_GeopotentialHeight_IsbL-0001_LatLon0.15_PT072H.grib2 2026-04-24 04:16 393K
20260424T00Z_MSC_GDPS_GeopotentialHeight_IsbL-0005_LatLon0.15_PT072H.grib2 2026-04-24 04:16 499K
20260424T00Z_MSC_GDPS_GeopotentialHeight_IsbL-0010_LatLon0.15_PT072H.grib2 2026-04-24 04:16 479K
20260424T00Z_MSC_GDPS_GeopotentialHeight_IsbL-0020_LatLon0.15_PT072H.grib2 2026-04-24 04:16 420K
20260424T00Z_MSC_GDPS_GeopotentialHeight_IsbL-0030_LatLon0.15_PT072H.grib2 2026-04-24 04:16 577K
20260424T00Z_MSC_GDPS_GeopotentialHeight_IsbL-0050_LatLon0.15_PT072H.grib2 2026-04-24 04:16 572K
20260424T00Z_MSC_GDPS_GeopotentialHeight_IsbL-0100_LatLon0.15_PT072H.grib2 2026-04-24 04:16 603K
20260424T00Z_MSC_GDPS_GeopotentialHeight_IsbL-0150_LatLon0.15_PT072H.grib2 2026-04-24 04:16 620K
20260424T00Z_MSC_GDPS_GeopotentialHeight_IsbL-0175_LatLon0.15_PT072H.grib2 2026-04-24 04:16 624K
20260424T00Z_MSC_GDPS_GeopotentialHeight_IsbL-0200_LatLon0.15_PT072H.grib2 2026-04-24 04:16 629K
20260424T00Z_MSC_GDPS_GeopotentialHeight_IsbL-0225_LatLon0.15_PT072H.grib2 2026-04-24 04:16 629K
20260424T00Z_MSC_GDPS_GeopotentialHeight_IsbL-0250_LatLon0.15_PT072H.grib2 2026-04-24 04:16 637K
20260424T00Z_MSC_GDPS_GeopotentialHeight_IsbL-0275_LatLon0.15_PT072H.grib2 2026-04-24 04:16 640K
20260424T00Z_MSC_GDPS_GeopotentialHeight_IsbL-0300_LatLon0.15_PT072H.grib2 2026-04-24 04:16 633K
20260424T00Z_MSC_GDPS_GeopotentialHeight_IsbL-0350_LatLon0.15_PT072H.grib2 2026-04-24 04:16 633K
20260424T00Z_MSC_GDPS_GeopotentialHeight_IsbL-0400_LatLon0.15_PT072H.grib2 2026-04-24 04:16 623K
20260424T00Z_MSC_GDPS_GeopotentialHeight_IsbL-0450_LatLon0.15_PT072H.grib2 2026-04-24 04:16 615K
20260424T00Z_MSC_GDPS_GeopotentialHeight_IsbL-0500_LatLon0.15_PT072H.grib2 2026-04-24 04:16 535K
20260424T00Z_MSC_GDPS_GeopotentialHeight_IsbL-0550_LatLon0.15_PT072H.grib2 2026-04-24 04:16 528K
20260424T00Z_MSC_GDPS_GeopotentialHeight_IsbL-0600_LatLon0.15_PT072H.grib2 2026-04-24 04:16 521K
20260424T00Z_MSC_GDPS_GeopotentialHeight_IsbL-0650_LatLon0.15_PT072H.grib2 2026-04-24 04:16 519K
20260424T00Z_MSC_GDPS_GeopotentialHeight_IsbL-0700_LatLon0.15_PT072H.grib2 2026-04-24 04:16 682K
20260424T00Z_MSC_GDPS_GeopotentialHeight_IsbL-0750_LatLon0.15_PT072H.grib2 2026-04-24 04:16 686K
20260424T00Z_MSC_GDPS_GeopotentialHeight_IsbL-0800_LatLon0.15_PT072H.grib2 2026-04-24 04:16 701K
20260424T00Z_MSC_GDPS_GeopotentialHeight_IsbL-0850_LatLon0.15_PT072H.grib2 2026-04-24 04:16 711K
20260424T00Z_MSC_GDPS_GeopotentialHeight_IsbL-0875_LatLon0.15_PT072H.grib2 2026-04-24 04:16 711K
20260424T00Z_MSC_GDPS_GeopotentialHeight_IsbL-0900_LatLon0.15_PT072H.grib2 2026-04-24 04:16 719K
20260424T00Z_MSC_GDPS_GeopotentialHeight_IsbL-0925_LatLon0.15_PT072H.grib2 2026-04-24 04:16 729K
20260424T00Z_MSC_GDPS_GeopotentialHeight_IsbL-0950_LatLon0.15_PT072H.grib2 2026-04-24 04:16 736K
20260424T00Z_MSC_GDPS_GeopotentialHeight_IsbL-0970_LatLon0.15_PT072H.grib2 2026-04-24 04:16 747K
20260424T00Z_MSC_GDPS_GeopotentialHeight_IsbL-0985_LatLon0.15_PT072H.grib2 2026-04-24 04:16 764K
20260424T00Z_MSC_GDPS_GeopotentialHeight_IsbL-1000_LatLon0.15_PT072H.grib2 2026-04-24 04:16 786K
20260424T00Z_MSC_GDPS_GeopotentialHeight_IsbL-1015_LatLon0.15_PT072H.grib2 2026-04-24 04:16 808K
20260424T00Z_MSC_GDPS_Humidex_Sfc_LatLon0.15_PT072H.grib2 2026-04-24 04:16 5.3M
20260424T00Z_MSC_GDPS_IcePellets-Accum12h_Sfc_LatLon0.15_PT072H.grib2 2026-04-24 04:16 29K
20260424T00Z_MSC_GDPS_IcePellets-Accum1h_Sfc_LatLon0.15_PT072H.grib2 2026-04-24 04:16 16K
20260424T00Z_MSC_GDPS_IcePellets-Accum24h_Sfc_LatLon0.15_PT072H.grib2 2026-04-24 04:16 41K
20260424T00Z_MSC_GDPS_IcePellets-Accum3h_Sfc_LatLon0.15_PT072H.grib2 2026-04-24 04:16 19K
20260424T00Z_MSC_GDPS_IcePellets-Accum6h_Sfc_LatLon0.15_PT072H.grib2 2026-04-24 04:16 24K
20260424T00Z_MSC_GDPS_IcePellets-Accum_Sfc_LatLon0.15_PT072H.grib2 2026-04-24 04:16 111K
20260424T00Z_MSC_GDPS_KIndex_Sfc_LatLon0.15_PT072H.grib2 2026-04-24 04:16 6.5M
20260424T00Z_MSC_GDPS_LatentHeatNetFlux_Sfc_LatLon0.15_PT072H.grib2 2026-04-24 04:16 657K
20260424T00Z_MSC_GDPS_LiftedIndex-MU-VT_IsbL-0500_LatLon0.15_PT072H.grib2 2026-04-24 04:16 5.3M
20260424T00Z_MSC_GDPS_NetLongwaveRadiationFlux-Accum_Sfc_LatLon0.15_PT072H.grib2 2026-04-24 04:16 970K
20260424T00Z_MSC_GDPS_NetShortwaveRadiationFlux-Accum_Sfc_LatLon0.15_PT072H.grib2 2026-04-24 04:16 1.1M
20260424T00Z_MSC_GDPS_O3MixingRatio_LatLon0.15_PT072H.grib2 2026-04-24 04:51 1.9M
20260424T00Z_MSC_GDPS_O3_EAtm_LatLon0.15_PT072H.grib2 2026-04-24 04:51 2.5M
20260424T00Z_MSC_GDPS_PlanetaryBoundaryLayerHeight_Sfc_LatLon0.15_PT072H.grib2 2026-04-24 04:16 2.4M
20260424T00Z_MSC_GDPS_Precip-Accum12h_Sfc_LatLon0.15_PT072H.grib2 2026-04-24 04:16 4.1M
20260424T00Z_MSC_GDPS_Precip-Accum1h_Sfc_LatLon0.15_PT072H.grib2 2026-04-24 04:16 3.2M
20260424T00Z_MSC_GDPS_Precip-Accum24h_Sfc_LatLon0.15_PT072H.grib2 2026-04-24 04:16 4.6M
20260424T00Z_MSC_GDPS_Precip-Accum3h_Sfc_LatLon0.15_PT072H.grib2 2026-04-24 04:16 3.5M
20260424T00Z_MSC_GDPS_Precip-Accum6h_Sfc_LatLon0.15_PT072H.grib2 2026-04-24 04:16 3.9M
20260424T00Z_MSC_GDPS_Precip-Accum_Sfc_LatLon0.15_PT072H.grib2 2026-04-24 04:16 5.2M
20260424T00Z_MSC_GDPS_PrecipRate_Sfc_LatLon0.15_PT072H.grib2 2026-04-24 04:16 3.1M
20260424T00Z_MSC_GDPS_PrecipType-Instant_Sfc_LatLon0.15_PT072H.grib2 2026-04-24 04:16 1.6M
20260424T00Z_MSC_GDPS_Pressure_MSL_LatLon0.15_PT072H.grib2 2026-04-24 04:16 719K
20260424T00Z_MSC_GDPS_Pressure_PVU-1.5_LatLon0.15_PT072H.grib2 2026-04-24 04:16 5.8M
20260424T00Z_MSC_GDPS_Pressure_PVU-1_LatLon0.15_PT072H.grib2 2026-04-24 04:16 6.0M
20260424T00Z_MSC_GDPS_Pressure_PVU-2_LatLon0.15_PT072H.grib2 2026-04-24 04:16 5.6M
20260424T00Z_MSC_GDPS_Pressure_Sfc_LatLon0.15_PT072H.grib2 2026-04-24 04:16 1.1M
20260424T00Z_MSC_GDPS_RadiativeTemp_Sfc_LatLon0.15_PT072H.grib2 2026-04-24 04:16 656K
20260424T00Z_MSC_GDPS_Rain-Accum12h_Sfc_LatLon0.15_PT072H.grib2 2026-04-24 04:16 2.8M
20260424T00Z_MSC_GDPS_Rain-Accum1h_Sfc_LatLon0.15_PT072H.grib2 2026-04-24 04:16 1.6M
20260424T00Z_MSC_GDPS_Rain-Accum24h_Sfc_LatLon0.15_PT072H.grib2 2026-04-24 04:16 3.2M
20260424T00Z_MSC_GDPS_Rain-Accum3h_Sfc_LatLon0.15_PT072H.grib2 2026-04-24 04:16 1.7M
20260424T00Z_MSC_GDPS_Rain-Accum6h_Sfc_LatLon0.15_PT072H.grib2 2026-04-24 04:16 2.5M
20260424T00Z_MSC_GDPS_Rain-Accum_Sfc_LatLon0.15_PT072H.grib2 2026-04-24 04:16 3.9M
20260424T00Z_MSC_GDPS_RelativeHumidity_AGL-2m_LatLon0.15_PT072H.grib2 2026-04-24 04:16 1.0M
20260424T00Z_MSC_GDPS_RelativeHumidity_IsbL-0010_LatLon0.15_PT072H.grib2 2026-04-24 04:16 263K
20260424T00Z_MSC_GDPS_RelativeHumidity_IsbL-0020_LatLon0.15_PT072H.grib2 2026-04-24 04:16 277K
20260424T00Z_MSC_GDPS_RelativeHumidity_IsbL-0030_LatLon0.15_PT072H.grib2 2026-04-24 04:16 345K
20260424T00Z_MSC_GDPS_RelativeHumidity_IsbL-0050_LatLon0.15_PT072H.grib2 2026-04-24 04:16 420K
20260424T00Z_MSC_GDPS_RelativeHumidity_IsbL-0100_LatLon0.15_PT072H.grib2 2026-04-24 04:16 498K
20260424T00Z_MSC_GDPS_RelativeHumidity_IsbL-0150_LatLon0.15_PT072H.grib2 2026-04-24 04:16 641K
20260424T00Z_MSC_GDPS_RelativeHumidity_IsbL-0175_LatLon0.15_PT072H.grib2 2026-04-24 04:16 771K
20260424T00Z_MSC_GDPS_RelativeHumidity_IsbL-0200_LatLon0.15_PT072H.grib2 2026-04-24 04:16 696K
20260424T00Z_MSC_GDPS_RelativeHumidity_IsbL-0225_LatLon0.15_PT072H.grib2 2026-04-24 04:16 783K
20260424T00Z_MSC_GDPS_RelativeHumidity_IsbL-0250_LatLon0.15_PT072H.grib2 2026-04-24 04:16 865K
20260424T00Z_MSC_GDPS_RelativeHumidity_IsbL-0275_LatLon0.15_PT072H.grib2 2026-04-24 04:16 886K
20260424T00Z_MSC_GDPS_RelativeHumidity_IsbL-0300_LatLon0.15_PT072H.grib2 2026-04-24 04:16 926K
20260424T00Z_MSC_GDPS_RelativeHumidity_IsbL-0350_LatLon0.15_PT072H.grib2 2026-04-24 04:16 952K
20260424T00Z_MSC_GDPS_RelativeHumidity_IsbL-0400_LatLon0.15_PT072H.grib2 2026-04-24 04:16 1.0M
20260424T00Z_MSC_GDPS_RelativeHumidity_IsbL-0450_LatLon0.15_PT072H.grib2 2026-04-24 04:16 1.0M
20260424T00Z_MSC_GDPS_RelativeHumidity_IsbL-0500_LatLon0.15_PT072H.grib2 2026-04-24 04:16 1.0M
20260424T00Z_MSC_GDPS_RelativeHumidity_IsbL-0550_LatLon0.15_PT072H.grib2 2026-04-24 04:16 1.0M
20260424T00Z_MSC_GDPS_RelativeHumidity_IsbL-0600_LatLon0.15_PT072H.grib2 2026-04-24 04:16 1.1M
20260424T00Z_MSC_GDPS_RelativeHumidity_IsbL-0650_LatLon0.15_PT072H.grib2 2026-04-24 04:16 1.1M
20260424T00Z_MSC_GDPS_RelativeHumidity_IsbL-0700_LatLon0.15_PT072H.grib2 2026-04-24 04:16 1.2M
20260424T00Z_MSC_GDPS_RelativeHumidity_IsbL-0750_LatLon0.15_PT072H.grib2 2026-04-24 04:16 1.2M
20260424T00Z_MSC_GDPS_RelativeHumidity_IsbL-0800_LatLon0.15_PT072H.grib2 2026-04-24 04:16 1.3M
20260424T00Z_MSC_GDPS_RelativeHumidity_IsbL-0850_LatLon0.15_PT072H.grib2 2026-04-24 04:16 1.3M
20260424T00Z_MSC_GDPS_RelativeHumidity_IsbL-0875_LatLon0.15_PT072H.grib2 2026-04-24 04:16 1.3M
20260424T00Z_MSC_GDPS_RelativeHumidity_IsbL-0900_LatLon0.15_PT072H.grib2 2026-04-24 04:16 1.2M
20260424T00Z_MSC_GDPS_RelativeHumidity_IsbL-0925_LatLon0.15_PT072H.grib2 2026-04-24 04:16 1.2M
20260424T00Z_MSC_GDPS_RelativeHumidity_IsbL-0950_LatLon0.15_PT072H.grib2 2026-04-24 04:16 1.2M
20260424T00Z_MSC_GDPS_RelativeHumidity_IsbL-0970_LatLon0.15_PT072H.grib2 2026-04-24 04:16 1.2M
20260424T00Z_MSC_GDPS_RelativeHumidity_IsbL-0985_LatLon0.15_PT072H.grib2 2026-04-24 04:16 1.1M
20260424T00Z_MSC_GDPS_RelativeHumidity_IsbL-1000_LatLon0.15_PT072H.grib2 2026-04-24 04:16 1.1M
20260424T00Z_MSC_GDPS_RelativeHumidity_IsbL-1015_LatLon0.15_PT072H.grib2 2026-04-24 04:16 1.0M
20260424T00Z_MSC_GDPS_RelativeVorticity_IsbL-0200_LatLon0.15_PT072H.grib2 2026-04-24 04:16 1.5M
20260424T00Z_MSC_GDPS_RelativeVorticity_IsbL-0250_LatLon0.15_PT072H.grib2 2026-04-24 04:16 1.3M
20260424T00Z_MSC_GDPS_RelativeVorticity_IsbL-0500_LatLon0.15_PT072H.grib2 2026-04-24 04:16 1.2M
20260424T00Z_MSC_GDPS_RelativeVorticity_IsbL-0700_LatLon0.15_PT072H.grib2 2026-04-24 04:16 1.3M
20260424T00Z_MSC_GDPS_RelativeVorticity_IsbL-0850_LatLon0.15_PT072H.grib2 2026-04-24 04:16 1.6M
20260424T00Z_MSC_GDPS_Runoff-Accum_Sfc_LatLon0.15_PT072H.grib2 2026-04-24 04:16 103K
20260424T00Z_MSC_GDPS_SensibleHeatNetFlux_Sfc_LatLon0.15_PT072H.grib2 2026-04-24 04:16 447K
20260424T00Z_MSC_GDPS_ShowalterIndex_IsbL-0500_LatLon0.15_PT072H.grib2 2026-04-24 04:16 6.2M
20260424T00Z_MSC_GDPS_Snow-Accum12h_Sfc_LatLon0.15_PT072H.grib2 2026-04-24 04:16 1.6M
20260424T00Z_MSC_GDPS_Snow-Accum1h_Sfc_LatLon0.15_PT072H.grib2 2026-04-24 04:16 1.1M
20260424T00Z_MSC_GDPS_Snow-Accum24h_Sfc_LatLon0.15_PT072H.grib2 2026-04-24 04:16 1.7M
20260424T00Z_MSC_GDPS_Snow-Accum3h_Sfc_LatLon0.15_PT072H.grib2 2026-04-24 04:16 1.0M
20260424T00Z_MSC_GDPS_Snow-Accum6h_Sfc_LatLon0.15_PT072H.grib2 2026-04-24 04:16 1.4M
20260424T00Z_MSC_GDPS_Snow-Accum_Sfc_LatLon0.15_PT072H.grib2 2026-04-24 04:16 2.0M
20260424T00Z_MSC_GDPS_SnowDensity_Sfc_LatLon0.15_PT072H.grib2 2026-04-24 04:16 270K
20260424T00Z_MSC_GDPS_SnowDepth_Sfc_LatLon0.15_PT072H.grib2 2026-04-24 04:16 1.8M
20260424T00Z_MSC_GDPS_SoilTemp_DBS-0to10cm_LatLon0.15_PT072H.grib2 2026-04-24 04:16 505K
20260424T00Z_MSC_GDPS_SoilTemp_Sfc_LatLon0.15_PT072H.grib2 2026-04-24 04:16 558K
20260424T00Z_MSC_GDPS_SoilVolumetricIceContent_Sfc_LatLon0.15_PT072H.grib2 2026-04-24 04:16 213K
20260424T00Z_MSC_GDPS_SoilVolumetricWaterContent_DBS-0to10cm_LatLon0.15_PT072H.grib2 2026-04-24 04:16 569K
20260424T00Z_MSC_GDPS_SoilVolumetricWaterContent_DBS-0to1cm_LatLon0.15_PT072H.grib2 2026-04-24 04:16 653K
20260424T00Z_MSC_GDPS_SpecificHumidity_AGL-120m_LatLon0.15_PT072H.grib2 2026-04-24 04:16 1.1M
20260424T00Z_MSC_GDPS_SpecificHumidity_AGL-2m_LatLon0.15_PT072H.grib2 2026-04-24 04:16 1.2M
20260424T00Z_MSC_GDPS_SpecificHumidity_AGL-40m_LatLon0.15_PT072H.grib2 2026-04-24 04:16 1.1M
20260424T00Z_MSC_GDPS_SpecificHumidity_AGL-80m_LatLon0.15_PT072H.grib2 2026-04-24 04:16 1.1M
20260424T00Z_MSC_GDPS_SpecificHumidity_IsbL-0001_LatLon0.15_PT072H.grib2 2026-04-24 04:16 1.2M
20260424T00Z_MSC_GDPS_SpecificHumidity_IsbL-0005_LatLon0.15_PT072H.grib2 2026-04-24 04:16 1.5M
20260424T00Z_MSC_GDPS_SpecificHumidity_IsbL-0010_LatLon0.15_PT072H.grib2 2026-04-24 04:16 1.3M
20260424T00Z_MSC_GDPS_SpecificHumidity_IsbL-0020_LatLon0.15_PT072H.grib2 2026-04-24 04:16 1.3M
20260424T00Z_MSC_GDPS_SpecificHumidity_IsbL-0030_LatLon0.15_PT072H.grib2 2026-04-24 04:16 1.6M
20260424T00Z_MSC_GDPS_SpecificHumidity_IsbL-0050_LatLon0.15_PT072H.grib2 2026-04-24 04:16 1.4M
20260424T00Z_MSC_GDPS_SpecificHumidity_IsbL-0100_LatLon0.15_PT072H.grib2 2026-04-24 04:16 1.4M
20260424T00Z_MSC_GDPS_SpecificHumidity_IsbL-0150_LatLon0.15_PT072H.grib2 2026-04-24 04:16 1.2M
20260424T00Z_MSC_GDPS_SpecificHumidity_IsbL-0175_LatLon0.15_PT072H.grib2 2026-04-24 04:16 1.2M
20260424T00Z_MSC_GDPS_SpecificHumidity_IsbL-0200_LatLon0.15_PT072H.grib2 2026-04-24 04:16 1.3M
20260424T00Z_MSC_GDPS_SpecificHumidity_IsbL-0225_LatLon0.15_PT072H.grib2 2026-04-24 04:16 1.3M
20260424T00Z_MSC_GDPS_SpecificHumidity_IsbL-0250_LatLon0.15_PT072H.grib2 2026-04-24 04:16 1.4M
20260424T00Z_MSC_GDPS_SpecificHumidity_IsbL-0275_LatLon0.15_PT072H.grib2 2026-04-24 04:16 1.3M
20260424T00Z_MSC_GDPS_SpecificHumidity_IsbL-0300_LatLon0.15_PT072H.grib2 2026-04-24 04:16 1.2M
20260424T00Z_MSC_GDPS_SpecificHumidity_IsbL-0350_LatLon0.15_PT072H.grib2 2026-04-24 04:16 1.5M
20260424T00Z_MSC_GDPS_SpecificHumidity_IsbL-0400_LatLon0.15_PT072H.grib2 2026-04-24 04:16 1.5M
20260424T00Z_MSC_GDPS_SpecificHumidity_IsbL-0450_LatLon0.15_PT072H.grib2 2026-04-24 04:16 1.6M
20260424T00Z_MSC_GDPS_SpecificHumidity_IsbL-0500_LatLon0.15_PT072H.grib2 2026-04-24 04:16 1.4M
20260424T00Z_MSC_GDPS_SpecificHumidity_IsbL-0550_LatLon0.15_PT072H.grib2 2026-04-24 04:16 1.6M
20260424T00Z_MSC_GDPS_SpecificHumidity_IsbL-0600_LatLon0.15_PT072H.grib2 2026-04-24 04:16 1.7M
20260424T00Z_MSC_GDPS_SpecificHumidity_IsbL-0650_LatLon0.15_PT072H.grib2 2026-04-24 04:16 1.5M
20260424T00Z_MSC_GDPS_SpecificHumidity_IsbL-0700_LatLon0.15_PT072H.grib2 2026-04-24 04:16 1.6M
20260424T00Z_MSC_GDPS_SpecificHumidity_IsbL-0750_LatLon0.15_PT072H.grib2 2026-04-24 04:16 1.7M
20260424T00Z_MSC_GDPS_SpecificHumidity_IsbL-0800_LatLon0.15_PT072H.grib2 2026-04-24 04:16 1.9M
20260424T00Z_MSC_GDPS_SpecificHumidity_IsbL-0850_LatLon0.15_PT072H.grib2 2026-04-24 04:16 1.9M
20260424T00Z_MSC_GDPS_SpecificHumidity_IsbL-0875_LatLon0.15_PT072H.grib2 2026-04-24 04:16 1.9M
20260424T00Z_MSC_GDPS_SpecificHumidity_IsbL-0900_LatLon0.15_PT072H.grib2 2026-04-24 04:16 1.9M
20260424T00Z_MSC_GDPS_SpecificHumidity_IsbL-0925_LatLon0.15_PT072H.grib2 2026-04-24 04:16 1.6M
20260424T00Z_MSC_GDPS_SpecificHumidity_IsbL-0950_LatLon0.15_PT072H.grib2 2026-04-24 04:16 1.5M
20260424T00Z_MSC_GDPS_SpecificHumidity_IsbL-0970_LatLon0.15_PT072H.grib2 2026-04-24 04:16 1.5M
20260424T00Z_MSC_GDPS_SpecificHumidity_IsbL-0985_LatLon0.15_PT072H.grib2 2026-04-24 04:16 1.5M
20260424T00Z_MSC_GDPS_SpecificHumidity_IsbL-1000_LatLon0.15_PT072H.grib2 2026-04-24 04:16 1.5M
20260424T00Z_MSC_GDPS_SpecificHumidity_IsbL-1015_LatLon0.15_PT072H.grib2 2026-04-24 04:16 1.4M
20260424T00Z_MSC_GDPS_SpecificHumidity_Sfc_LatLon0.15_PT072H.grib2 2026-04-24 04:16 626K
20260424T00Z_MSC_GDPS_Thickness_IsbL-0850to0700_LatLon0.15_PT072H.grib2 2026-04-24 04:16 464K
20260424T00Z_MSC_GDPS_Thickness_IsbL-1000to0500_LatLon0.15_PT072H.grib2 2026-04-24 04:16 370K
20260424T00Z_MSC_GDPS_Thickness_IsbL-1000to0850_LatLon0.15_PT072H.grib2 2026-04-24 04:16 485K
20260424T00Z_MSC_GDPS_TotalCloudCover_Sfc_LatLon0.15_PT072H.grib2 2026-04-24 04:16 832K
20260424T00Z_MSC_GDPS_TotalTotalsIndex_Sfc_LatLon0.15_PT072H.grib2 2026-04-24 04:16 6.2M
20260424T00Z_MSC_GDPS_UVIndex-ClearSky_Sfc_LatLon0.15_PT072H.grib2 2026-04-24 04:51 1.0M
20260424T00Z_MSC_GDPS_UVIndex_Sfc_LatLon0.15_PT072H.grib2 2026-04-24 04:51 1.5M
20260424T00Z_MSC_GDPS_UpwardLongwaveRadiationFlux_NTAtm_LatLon0.15_PT072H.grib2 2026-04-24 04:16 1.1M
20260424T00Z_MSC_GDPS_VerticalVelocity_IsbL-0200_LatLon0.15_PT072H.grib2 2026-04-24 04:16 1.2M
20260424T00Z_MSC_GDPS_VerticalVelocity_IsbL-0250_LatLon0.15_PT072H.grib2 2026-04-24 04:16 1.0M
20260424T00Z_MSC_GDPS_VerticalVelocity_IsbL-0500_LatLon0.15_PT072H.grib2 2026-04-24 04:16 1.3M
20260424T00Z_MSC_GDPS_VerticalVelocity_IsbL-0600_LatLon0.15_PT072H.grib2 2026-04-24 04:16 1.3M
20260424T00Z_MSC_GDPS_VerticalVelocity_IsbL-0700_LatLon0.15_PT072H.grib2 2026-04-24 04:16 1.4M
20260424T00Z_MSC_GDPS_VerticalVelocity_IsbL-0850_LatLon0.15_PT072H.grib2 2026-04-24 04:16 1.6M
20260424T00Z_MSC_GDPS_WindChill_Sfc_LatLon0.15_PT072H.grib2 2026-04-24 04:16 5.3M
20260424T00Z_MSC_GDPS_WindDir_AGL-10m_LatLon0.15_PT072H.grib2 2026-04-24 04:16 1.3M
20260424T00Z_MSC_GDPS_WindDir_AGL-120m_LatLon0.15_PT072H.grib2 2026-04-24 04:16 1.4M
20260424T00Z_MSC_GDPS_WindDir_AGL-40m_LatLon0.15_PT072H.grib2 2026-04-24 04:16 1.4M
20260424T00Z_MSC_GDPS_WindDir_AGL-80m_LatLon0.15_PT072H.grib2 2026-04-24 04:16 1.4M
20260424T00Z_MSC_GDPS_WindDir_IsbL-0001_LatLon0.15_PT072H.grib2 2026-04-24 04:16 682K
20260424T00Z_MSC_GDPS_WindDir_IsbL-0005_LatLon0.15_PT072H.grib2 2026-04-24 04:16 810K
20260424T00Z_MSC_GDPS_WindDir_IsbL-0010_LatLon0.15_PT072H.grib2 2026-04-24 04:16 859K
20260424T00Z_MSC_GDPS_WindDir_IsbL-0020_LatLon0.15_PT072H.grib2 2026-04-24 04:16 951K
20260424T00Z_MSC_GDPS_WindDir_IsbL-0030_LatLon0.15_PT072H.grib2 2026-04-24 04:16 923K
20260424T00Z_MSC_GDPS_WindDir_IsbL-0050_LatLon0.15_PT072H.grib2 2026-04-24 04:16 950K
20260424T00Z_MSC_GDPS_WindDir_IsbL-0100_LatLon0.15_PT072H.grib2 2026-04-24 04:16 1.0M
20260424T00Z_MSC_GDPS_WindDir_IsbL-0150_LatLon0.15_PT072H.grib2 2026-04-24 04:16 1.0M
20260424T00Z_MSC_GDPS_WindDir_IsbL-0175_LatLon0.15_PT072H.grib2 2026-04-24 04:16 1.1M
20260424T00Z_MSC_GDPS_WindDir_IsbL-0200_LatLon0.15_PT072H.grib2 2026-04-24 04:16 1.1M
20260424T00Z_MSC_GDPS_WindDir_IsbL-0225_LatLon0.15_PT072H.grib2 2026-04-24 04:16 1.1M
20260424T00Z_MSC_GDPS_WindDir_IsbL-0250_LatLon0.15_PT072H.grib2 2026-04-24 04:16 1.1M
20260424T00Z_MSC_GDPS_WindDir_IsbL-0275_LatLon0.15_PT072H.grib2 2026-04-24 04:16 1.2M
20260424T00Z_MSC_GDPS_WindDir_IsbL-0300_LatLon0.15_PT072H.grib2 2026-04-24 04:16 1.2M
20260424T00Z_MSC_GDPS_WindDir_IsbL-0350_LatLon0.15_PT072H.grib2 2026-04-24 04:16 1.2M
20260424T00Z_MSC_GDPS_WindDir_IsbL-0400_LatLon0.15_PT072H.grib2 2026-04-24 04:16 1.2M
20260424T00Z_MSC_GDPS_WindDir_IsbL-0450_LatLon0.15_PT072H.grib2 2026-04-24 04:16 1.3M
20260424T00Z_MSC_GDPS_WindDir_IsbL-0500_LatLon0.15_PT072H.grib2 2026-04-24 04:16 1.3M
20260424T00Z_MSC_GDPS_WindDir_IsbL-0550_LatLon0.15_PT072H.grib2 2026-04-24 04:16 1.4M
20260424T00Z_MSC_GDPS_WindDir_IsbL-0600_LatLon0.15_PT072H.grib2 2026-04-24 04:16 1.5M
20260424T00Z_MSC_GDPS_WindDir_IsbL-0650_LatLon0.15_PT072H.grib2 2026-04-24 04:16 1.5M
20260424T00Z_MSC_GDPS_WindDir_IsbL-0700_LatLon0.15_PT072H.grib2 2026-04-24 04:16 1.6M
20260424T00Z_MSC_GDPS_WindDir_IsbL-0750_LatLon0.15_PT072H.grib2 2026-04-24 04:16 1.7M
20260424T00Z_MSC_GDPS_WindDir_IsbL-0800_LatLon0.15_PT072H.grib2 2026-04-24 04:16 1.8M
20260424T00Z_MSC_GDPS_WindDir_IsbL-0850_LatLon0.15_PT072H.grib2 2026-04-24 04:16 1.9M
20260424T00Z_MSC_GDPS_WindDir_IsbL-0875_LatLon0.15_PT072H.grib2 2026-04-24 04:16 2.0M
20260424T00Z_MSC_GDPS_WindDir_IsbL-0900_LatLon0.15_PT072H.grib2 2026-04-24 04:16 2.0M
20260424T00Z_MSC_GDPS_WindDir_IsbL-0925_LatLon0.15_PT072H.grib2 2026-04-24 04:16 2.0M
20260424T00Z_MSC_GDPS_WindDir_IsbL-0950_LatLon0.15_PT072H.grib2 2026-04-24 04:16 2.0M
20260424T00Z_MSC_GDPS_WindDir_IsbL-0970_LatLon0.15_PT072H.grib2 2026-04-24 04:16 2.0M
20260424T00Z_MSC_GDPS_WindDir_IsbL-0985_LatLon0.15_PT072H.grib2 2026-04-24 04:16 2.0M
20260424T00Z_MSC_GDPS_WindDir_IsbL-1000_LatLon0.15_PT072H.grib2 2026-04-24 04:16 2.1M
20260424T00Z_MSC_GDPS_WindDir_IsbL-1015_LatLon0.15_PT072H.grib2 2026-04-24 04:16 2.0M
20260424T00Z_MSC_GDPS_WindGust-Max_AGL-10m_LatLon0.15_PT072H.grib2 2026-04-24 04:16 2.2M
20260424T00Z_MSC_GDPS_WindGust-Min_AGL-10m_LatLon0.15_PT072H.grib2 2026-04-24 04:16 2.1M
20260424T00Z_MSC_GDPS_WindGust_AGL-10m_LatLon0.15_PT072H.grib2 2026-04-24 04:16 2.1M
20260424T00Z_MSC_GDPS_WindSpeed_AGL-10m_LatLon0.15_PT072H.grib2 2026-04-24 04:16 1.1M
20260424T00Z_MSC_GDPS_WindSpeed_AGL-120m_LatLon0.15_PT072H.grib2 2026-04-24 04:16 1.3M
20260424T00Z_MSC_GDPS_WindSpeed_AGL-40m_LatLon0.15_PT072H.grib2 2026-04-24 04:16 1.3M
20260424T00Z_MSC_GDPS_WindSpeed_AGL-80m_LatLon0.15_PT072H.grib2 2026-04-24 04:16 1.3M
20260424T00Z_MSC_GDPS_WindSpeed_IsbL-0001_LatLon0.15_PT072H.grib2 2026-04-24 04:16 645K
20260424T00Z_MSC_GDPS_WindSpeed_IsbL-0005_LatLon0.15_PT072H.grib2 2026-04-24 04:16 613K
20260424T00Z_MSC_GDPS_WindSpeed_IsbL-0010_LatLon0.15_PT072H.grib2 2026-04-24 04:16 629K
20260424T00Z_MSC_GDPS_WindSpeed_IsbL-0020_LatLon0.15_PT072H.grib2 2026-04-24 04:16 860K
20260424T00Z_MSC_GDPS_WindSpeed_IsbL-0030_LatLon0.15_PT072H.grib2 2026-04-24 04:16 858K
20260424T00Z_MSC_GDPS_WindSpeed_IsbL-0050_LatLon0.15_PT072H.grib2 2026-04-24 04:16 1.0M
20260424T00Z_MSC_GDPS_WindSpeed_IsbL-0100_LatLon0.15_PT072H.grib2 2026-04-24 04:16 1.1M
20260424T00Z_MSC_GDPS_WindSpeed_IsbL-0150_LatLon0.15_PT072H.grib2 2026-04-24 04:16 1.0M
20260424T00Z_MSC_GDPS_WindSpeed_IsbL-0175_LatLon0.15_PT072H.grib2 2026-04-24 04:16 1.0M
20260424T00Z_MSC_GDPS_WindSpeed_IsbL-0200_LatLon0.15_PT072H.grib2 2026-04-24 04:16 1.0M
20260424T00Z_MSC_GDPS_WindSpeed_IsbL-0225_LatLon0.15_PT072H.grib2 2026-04-24 04:16 1.1M
20260424T00Z_MSC_GDPS_WindSpeed_IsbL-0250_LatLon0.15_PT072H.grib2 2026-04-24 04:16 1.1M
20260424T00Z_MSC_GDPS_WindSpeed_IsbL-0275_LatLon0.15_PT072H.grib2 2026-04-24 04:16 1.1M
20260424T00Z_MSC_GDPS_WindSpeed_IsbL-0300_LatLon0.15_PT072H.grib2 2026-04-24 04:16 1.1M
20260424T00Z_MSC_GDPS_WindSpeed_IsbL-0350_LatLon0.15_PT072H.grib2 2026-04-24 04:16 1.1M
20260424T00Z_MSC_GDPS_WindSpeed_IsbL-0400_LatLon0.15_PT072H.grib2 2026-04-24 04:16 1.1M
20260424T00Z_MSC_GDPS_WindSpeed_IsbL-0450_LatLon0.15_PT072H.grib2 2026-04-24 04:16 1.1M
20260424T00Z_MSC_GDPS_WindSpeed_IsbL-0500_LatLon0.15_PT072H.grib2 2026-04-24 04:16 1.1M
20260424T00Z_MSC_GDPS_WindSpeed_IsbL-0550_LatLon0.15_PT072H.grib2 2026-04-24 04:16 1.1M
20260424T00Z_MSC_GDPS_WindSpeed_IsbL-0600_LatLon0.15_PT072H.grib2 2026-04-24 04:16 1.1M
20260424T00Z_MSC_GDPS_WindSpeed_IsbL-0650_LatLon0.15_PT072H.grib2 2026-04-24 04:16 1.4M
20260424T00Z_MSC_GDPS_WindSpeed_IsbL-0700_LatLon0.15_PT072H.grib2 2026-04-24 04:16 1.5M
20260424T00Z_MSC_GDPS_WindSpeed_IsbL-0750_LatLon0.15_PT072H.grib2 2026-04-24 04:16 1.5M
20260424T00Z_MSC_GDPS_WindSpeed_IsbL-0800_LatLon0.15_PT072H.grib2 2026-04-24 04:16 1.8M
20260424T00Z_MSC_GDPS_WindSpeed_IsbL-0850_LatLon0.15_PT072H.grib2 2026-04-24 04:16 1.8M
20260424T00Z_MSC_GDPS_WindSpeed_IsbL-0875_LatLon0.15_PT072H.grib2 2026-04-24 04:16 1.8M
20260424T00Z_MSC_GDPS_WindSpeed_IsbL-0900_LatLon0.15_PT072H.grib2 2026-04-24 04:16 1.8M
20260424T00Z_MSC_GDPS_WindSpeed_IsbL-0925_LatLon0.15_PT072H.grib2 2026-04-24 04:16 1.8M
20260424T00Z_MSC_GDPS_WindSpeed_IsbL-0950_LatLon0.15_PT072H.grib2 2026-04-24 04:16 1.8M
20260424T00Z_MSC_GDPS_WindSpeed_IsbL-0970_LatLon0.15_PT072H.grib2 2026-04-24 04:16 1.8M
20260424T00Z_MSC_GDPS_WindSpeed_IsbL-0985_LatLon0.15_PT072H.grib2 2026-04-24 04:16 1.9M
20260424T00Z_MSC_GDPS_WindSpeed_IsbL-1000_LatLon0.15_PT072H.grib2 2026-04-24 04:16 1.9M
20260424T00Z_MSC_GDPS_WindSpeed_IsbL-1015_LatLon0.15_PT072H.grib2 2026-04-24 04:16 1.8M
20260424T00Z_MSC_GDPS_WindU_AGL-10m_LatLon0.15_PT072H.grib2 2026-04-24 04:16 1.6M
20260424T00Z_MSC_GDPS_WindU_AGL-120m_LatLon0.15_PT072H.grib2 2026-04-24 04:16 1.0M
20260424T00Z_MSC_GDPS_WindU_AGL-40m_LatLon0.15_PT072H.grib2 2026-04-24 04:16 1.0M
20260424T00Z_MSC_GDPS_WindU_AGL-80m_LatLon0.15_PT072H.grib2 2026-04-24 04:16 1.0M
20260424T00Z_MSC_GDPS_WindU_IsbL-0001_LatLon0.15_PT072H.grib2 2026-04-24 04:16 645K
20260424T00Z_MSC_GDPS_WindU_IsbL-0005_LatLon0.15_PT072H.grib2 2026-04-24 04:16 690K
20260424T00Z_MSC_GDPS_WindU_IsbL-0010_LatLon0.15_PT072H.grib2 2026-04-24 04:16 704K
20260424T00Z_MSC_GDPS_WindU_IsbL-0020_LatLon0.15_PT072H.grib2 2026-04-24 04:16 658K
20260424T00Z_MSC_GDPS_WindU_IsbL-0030_LatLon0.15_PT072H.grib2 2026-04-24 04:16 737K
20260424T00Z_MSC_GDPS_WindU_IsbL-0050_LatLon0.15_PT072H.grib2 2026-04-24 04:16 698K
20260424T00Z_MSC_GDPS_WindU_IsbL-0100_LatLon0.15_PT072H.grib2 2026-04-24 04:16 910K
20260424T00Z_MSC_GDPS_WindU_IsbL-0150_LatLon0.15_PT072H.grib2 2026-04-24 04:16 1.0M
20260424T00Z_MSC_GDPS_WindU_IsbL-0175_LatLon0.15_PT072H.grib2 2026-04-24 04:16 1.0M
20260424T00Z_MSC_GDPS_WindU_IsbL-0200_LatLon0.15_PT072H.grib2 2026-04-24 04:16 838K
20260424T00Z_MSC_GDPS_WindU_IsbL-0225_LatLon0.15_PT072H.grib2 2026-04-24 04:16 850K
20260424T00Z_MSC_GDPS_WindU_IsbL-0250_LatLon0.15_PT072H.grib2 2026-04-24 04:16 851K
20260424T00Z_MSC_GDPS_WindU_IsbL-0275_LatLon0.15_PT072H.grib2 2026-04-24 04:16 877K
20260424T00Z_MSC_GDPS_WindU_IsbL-0300_LatLon0.15_PT072H.grib2 2026-04-24 04:16 868K
20260424T00Z_MSC_GDPS_WindU_IsbL-0350_LatLon0.15_PT072H.grib2 2026-04-24 04:16 885K
20260424T00Z_MSC_GDPS_WindU_IsbL-0400_LatLon0.15_PT072H.grib2 2026-04-24 04:16 888K
20260424T00Z_MSC_GDPS_WindU_IsbL-0450_LatLon0.15_PT072H.grib2 2026-04-24 04:16 1.1M
20260424T00Z_MSC_GDPS_WindU_IsbL-0500_LatLon0.15_PT072H.grib2 2026-04-24 04:16 1.1M
20260424T00Z_MSC_GDPS_WindU_IsbL-0550_LatLon0.15_PT072H.grib2 2026-04-24 04:16 1.1M
20260424T00Z_MSC_GDPS_WindU_IsbL-0600_LatLon0.15_PT072H.grib2 2026-04-24 04:16 1.1M
20260424T00Z_MSC_GDPS_WindU_IsbL-0650_LatLon0.15_PT072H.grib2 2026-04-24 04:16 1.2M
20260424T00Z_MSC_GDPS_WindU_IsbL-0700_LatLon0.15_PT072H.grib2 2026-04-24 04:16 1.2M
20260424T00Z_MSC_GDPS_WindU_IsbL-0750_LatLon0.15_PT072H.grib2 2026-04-24 04:16 1.3M
20260424T00Z_MSC_GDPS_WindU_IsbL-0800_LatLon0.15_PT072H.grib2 2026-04-24 04:16 1.4M
20260424T00Z_MSC_GDPS_WindU_IsbL-0850_LatLon0.15_PT072H.grib2 2026-04-24 04:16 1.4M
20260424T00Z_MSC_GDPS_WindU_IsbL-0875_LatLon0.15_PT072H.grib2 2026-04-24 04:16 1.5M
20260424T00Z_MSC_GDPS_WindU_IsbL-0900_LatLon0.15_PT072H.grib2 2026-04-24 04:16 1.5M
20260424T00Z_MSC_GDPS_WindU_IsbL-0925_LatLon0.15_PT072H.grib2 2026-04-24 04:16 1.5M
20260424T00Z_MSC_GDPS_WindU_IsbL-0950_LatLon0.15_PT072H.grib2 2026-04-24 04:16 1.4M
20260424T00Z_MSC_GDPS_WindU_IsbL-0970_LatLon0.15_PT072H.grib2 2026-04-24 04:16 1.4M
20260424T00Z_MSC_GDPS_WindU_IsbL-0985_LatLon0.15_PT072H.grib2 2026-04-24 04:16 1.4M
20260424T00Z_MSC_GDPS_WindU_IsbL-1000_LatLon0.15_PT072H.grib2 2026-04-24 04:16 1.4M
20260424T00Z_MSC_GDPS_WindU_IsbL-1015_LatLon0.15_PT072H.grib2 2026-04-24 04:16 1.7M
20260424T00Z_MSC_GDPS_WindV_AGL-10m_LatLon0.15_PT072H.grib2 2026-04-24 04:16 1.3M
20260424T00Z_MSC_GDPS_WindV_AGL-120m_LatLon0.15_PT072H.grib2 2026-04-24 04:16 1.0M
20260424T00Z_MSC_GDPS_WindV_AGL-40m_LatLon0.15_PT072H.grib2 2026-04-24 04:16 1.0M
20260424T00Z_MSC_GDPS_WindV_AGL-80m_LatLon0.15_PT072H.grib2 2026-04-24 04:16 1.0M
20260424T00Z_MSC_GDPS_WindV_IsbL-0001_LatLon0.15_PT072H.grib2 2026-04-24 04:16 707K
20260424T00Z_MSC_GDPS_WindV_IsbL-0005_LatLon0.15_PT072H.grib2 2026-04-24 04:16 855K
20260424T00Z_MSC_GDPS_WindV_IsbL-0010_LatLon0.15_PT072H.grib2 2026-04-24 04:16 883K
20260424T00Z_MSC_GDPS_WindV_IsbL-0020_LatLon0.15_PT072H.grib2 2026-04-24 04:16 933K
20260424T00Z_MSC_GDPS_WindV_IsbL-0030_LatLon0.15_PT072H.grib2 2026-04-24 04:16 932K
20260424T00Z_MSC_GDPS_WindV_IsbL-0050_LatLon0.15_PT072H.grib2 2026-04-24 04:16 1.0M
20260424T00Z_MSC_GDPS_WindV_IsbL-0100_LatLon0.15_PT072H.grib2 2026-04-24 04:16 1.0M
20260424T00Z_MSC_GDPS_WindV_IsbL-0150_LatLon0.15_PT072H.grib2 2026-04-24 04:16 1.0M
20260424T00Z_MSC_GDPS_WindV_IsbL-0175_LatLon0.15_PT072H.grib2 2026-04-24 04:16 1.0M
20260424T00Z_MSC_GDPS_WindV_IsbL-0200_LatLon0.15_PT072H.grib2 2026-04-24 04:16 837K
20260424T00Z_MSC_GDPS_WindV_IsbL-0225_LatLon0.15_PT072H.grib2 2026-04-24 04:16 845K
20260424T00Z_MSC_GDPS_WindV_IsbL-0250_LatLon0.15_PT072H.grib2 2026-04-24 04:16 846K
20260424T00Z_MSC_GDPS_WindV_IsbL-0275_LatLon0.15_PT072H.grib2 2026-04-24 04:16 871K
20260424T00Z_MSC_GDPS_WindV_IsbL-0300_LatLon0.15_PT072H.grib2 2026-04-24 04:16 860K
20260424T00Z_MSC_GDPS_WindV_IsbL-0350_LatLon0.15_PT072H.grib2 2026-04-24 04:16 875K
20260424T00Z_MSC_GDPS_WindV_IsbL-0400_LatLon0.15_PT072H.grib2 2026-04-24 04:16 1.1M
20260424T00Z_MSC_GDPS_WindV_IsbL-0450_LatLon0.15_PT072H.grib2 2026-04-24 04:16 1.1M
20260424T00Z_MSC_GDPS_WindV_IsbL-0500_LatLon0.15_PT072H.grib2 2026-04-24 04:16 1.1M
20260424T00Z_MSC_GDPS_WindV_IsbL-0550_LatLon0.15_PT072H.grib2 2026-04-24 04:16 1.1M
20260424T00Z_MSC_GDPS_WindV_IsbL-0600_LatLon0.15_PT072H.grib2 2026-04-24 04:16 1.1M
20260424T00Z_MSC_GDPS_WindV_IsbL-0650_LatLon0.15_PT072H.grib2 2026-04-24 04:16 1.2M
20260424T00Z_MSC_GDPS_WindV_IsbL-0700_LatLon0.15_PT072H.grib2 2026-04-24 04:16 1.2M
20260424T00Z_MSC_GDPS_WindV_IsbL-0750_LatLon0.15_PT072H.grib2 2026-04-24 04:16 1.3M
20260424T00Z_MSC_GDPS_WindV_IsbL-0800_LatLon0.15_PT072H.grib2 2026-04-24 04:16 1.3M
20260424T00Z_MSC_GDPS_WindV_IsbL-0850_LatLon0.15_PT072H.grib2 2026-04-24 04:16 1.4M
20260424T00Z_MSC_GDPS_WindV_IsbL-0875_LatLon0.15_PT072H.grib2 2026-04-24 04:16 1.4M
20260424T00Z_MSC_GDPS_WindV_IsbL-0900_LatLon0.15_PT072H.grib2 2026-04-24 04:16 1.5M
20260424T00Z_MSC_GDPS_WindV_IsbL-0925_LatLon0.15_PT072H.grib2 2026-04-24 04:16 1.5M
20260424T00Z_MSC_GDPS_WindV_IsbL-0950_LatLon0.15_PT072H.grib2 2026-04-24 04:16 1.4M
20260424T00Z_MSC_GDPS_WindV_IsbL-0970_LatLon0.15_PT072H.grib2 2026-04-24 04:16 1.4M
20260424T00Z_MSC_GDPS_WindV_IsbL-0985_LatLon0.15_PT072H.grib2 2026-04-24 04:16 1.4M
20260424T00Z_MSC_GDPS_WindV_IsbL-1000_LatLon0.15_PT072H.grib2 2026-04-24 04:16 1.4M
20260424T00Z_MSC_GDPS_WindV_IsbL-1015_LatLon0.15_PT072H.grib2 2026-04-24 04:16 1.4M